GW6823 Weather Reports


time (UTC)temp
F
wind
direction
speed
knots
gust
knots
rain 1hr
in
rain 24hr
in
rain mn
in
humidity
%
barometer
mb
20260504215000 79 210 11.3 13.9 0.00 0.00 0.00 40 1006.0
20260504214500 78 208 13.9 13.9 0.00 0.00 0.00 40 1006.1
20260504214000 79 242 8.7 13.9 0.00 0.00 0.00 41 1006.1
20260504213500 79 232 7.0 13.9 0.00 0.00 0.00 42 1006.2
20260504213000 78 186 9.6 13.9 0.00 0.00 0.00 41 1006.2
20260504212500 78 202 8.7 17.4 0.00 0.00 0.00 40 1006.3
20260504212000 79 208 6.1 17.4 0.00 0.00 0.00 43 1006.4
20260504211500 79 219 7.8 15.6 0.00 0.00 0.00 40 1006.4
20260504211000 79 211 13.0 15.6 0.00 0.00 0.00 42 1006.5
20260504210500 79 197 14.8 17.4 0.00 0.00 0.00 42 1006.6
20260504210000 79 213 9.6 19.1 0.00 0.00 0.00 38 1006.6
20260504205500 78 200 7.8 19.1 0.00 0.00 0.00 41 1006.6
20260504205000 78 191 11.3 16.5 0.00 0.00 0.00 42 1006.6
20260504204500 78 223 7.8 16.5 0.00 0.00 0.00 41 1006.8
20260504204000 78 229 10.4 17.4 0.00 0.00 0.00 40 1006.8
20260504203500 79 212 12.2 17.4 0.00 0.00 0.00 40 1007.0
20260504203000 79 214 10.4 15.6 0.00 0.00 0.00 39 1007.1
20260504202500 78 208 9.6 14.8 0.00 0.00 0.00 41 1007.2
20260504202000 79 207 11.3 18.2 0.00 0.00 0.00 42 1007.4
20260504201500 79 240 11.3 18.2 0.00 0.00 0.00 39 1007.3
20260504201000 79 203 13.0 21.7 0.00 0.00 0.00 41 1007.4
20260504200500 78 190 13.0 21.7 0.00 0.00 0.00 42 1007.6
20260504200000 79 203 13.9 13.9 0.00 0.00 0.00 40 1007.5
20260504195500 78 212 10.4 14.8 0.00 0.00 0.00 41 1007.6
20260504195000 79 216 7.8 14.8 0.00 0.00 0.00 45 1007.6
20260504194500 79 217 9.6 14.8 0.00 0.00 0.00 40 1007.7
20260504194000 79 212 10.4 15.6 0.00 0.00 0.00 41 1007.7
20260504193500 78 224 10.4 16.5 0.00 0.00 0.00 44 1007.9
20260504193000 78 199 11.3 18.2 0.00 0.00 0.00 41 1008.0
20260504192500 78 216 9.6 18.2 0.00 0.00 0.00 43 1008.1
20260504192000 79 205 8.7 17.4 0.00 0.00 0.00 40 1008.1
20260504191505 78 208 7.8 17.4 0.00 0.00 0.00 43 1008.2
20260504191000 79 230 12.2 17.4 0.00 0.00 0.00 41 1008.2
20260504190500 78 203 8.7 18.2 0.00 0.00 0.00 43 1008.3
20260504190000 78 229 7.8 18.2 0.00 0.00 0.00 44 1008.3
20260504185500 78 214 8.7 17.4 0.00 0.00 0.00 43 1008.3
20260504185000 78 209 10.4 17.4 0.00 0.00 0.00 44 1008.4
20260504184500 78 209 7.0 17.4 0.00 0.00 0.00 41 1008.5
20260504184000 78 228 7.0 17.4 0.00 0.00 0.00 43 1008.6
20260504183500 78 185 11.3 17.4 0.00 0.00 0.00 41 1008.6
20260504183000 77 211 9.6 17.4 0.00 0.00 0.00 41 1008.7
20260504182500 78 199 10.4 18.2 0.00 0.00 0.00 44 1008.7
20260504182001 77 214 8.7 18.2 0.00 0.00 0.00 42 1008.8
20260504181500 77 205 10.4 16.5 0.00 0.00 0.00 42 1008.8
20260504181000 77 211 9.6 17.4 0.00 0.00 0.00 41 1008.9
20260504180500 77 222 8.7 17.4 0.00 0.00 0.00 42 1008.9
20260504180000 77 209 13.0 14.8 0.00 0.00 0.00 43 1009.0
20260504175500 78 210 8.7 14.8 0.00 0.00 0.00 46 1009.0
20260504175001 77 221 13.0 16.5 0.00 0.00 0.00 42 1009.1
20260504174500 77 239 9.6 17.4 0.00 0.00 0.00 42 1009.2
20260504174000 76 224 7.8 18.2 0.00 0.00 0.00 47 1009.3
20260504173500 77 217 13.0 18.2 0.00 0.00 0.00 42 1009.2
20260504173000 77 202 10.4 19.1 0.00 0.00 0.00 42 1009.5
20260504172500 76 234 10.4 19.1 0.00 0.00 0.00 43 1009.5
20260504172000 76 229 12.2 20.9 0.00 0.00 0.00 44 1009.4
20260504171500 76 232 9.6 20.9 0.00 0.00 0.00 45 1009.6
20260504171000 76 239 14.8 17.4 0.00 0.00 0.00 45 1009.7
20260504170500 76 198 14.8 16.5 0.00 0.00 0.00 46 1009.8
20260504151000 71 221 6.1 12.2 0.00 0.00 0.00 58 1010.2
20260504150500 70 249 5.2 12.2 0.00 0.00 0.00 60 1010.1
20260504141000 68 224 6.1 12.2 0.00 0.00 0.00 63 1010.2
20260504140500 67 241 6.1 12.2 0.00 0.00 0.00 62 1010.2
20260504110500 60 176 6.1 11.3 0.00 0.00 0.00 71 1008.5
20260504100500 60 199 5.2 7.0 0.00 0.00 0.00 70 1008.7
20260504082000 62 219 7.0 8.7 0.00 0.00 0.00 67 1009.1
20260504081500 62 215 3.5 7.8 0.00 0.00 0.00 68 1009.1
20260504081000 62 215 7.0 7.8 0.00 0.00 0.00 68 1009.1
20260504080500 62 200 7.0 10.4 0.00 0.00 0.00 67 1009.2
20260504050500 65 193 2.6 7.0 0.00 0.00 0.00 64 1010.1
20260504050000 65 186 4.3 7.8 0.00 0.00 0.00 63 1010.1
20260504045500 64 189 5.2 7.8 0.00 0.00 0.00 64 1010.1
20260504045000 64 192 4.3 7.8 0.00 0.00 0.00 64 1010.1
20260504044500 64 200 6.1 9.6 0.00 0.00 0.00 65 1010.1
20260504044000 65 202 4.3 9.6 0.00 0.00 0.00 64 1010.2
20260504043500 65 206 9.6 9.6 0.00 0.00 0.00 63 1010.2
20260504043000 65 198 4.3 8.7 0.00 0.00 0.00 63 1010.3
20260504042500 65 186 4.3 8.7 0.00 0.00 0.00 62 1010.3
20260504042000 65 206 7.0 7.8 0.00 0.00 0.00 63 1010.3
20260504041500 65 192 5.2 7.8 0.00 0.00 0.00 62 1010.3
20260504041000 65 191 4.3 7.0 0.00 0.00 0.00 63 1010.4
20260504040500 64 192 3.5 6.1 0.00 0.00 0.00 65 1010.5
20260504040000 65 173 5.2 7.8 0.00 0.00 0.00 64 1010.4
20260504035500 65 165 3.5 7.8 0.00 0.00 0.00 63 1010.4
20260504035000 65 196 6.1 6.1 0.00 0.00 0.00 63 1010.5
20260504034500 65 188 3.5 7.8 0.00 0.00 0.00 65 1010.5
20260504034000 65 176 3.5 7.8 0.00 0.00 0.00 64 1010.5
20260504033500 65 196 3.5 7.8 0.00 0.00 0.00 63 1010.5
20260504033000 65 185 3.5 7.8 0.00 0.00 0.00 64 1010.5
20260504032500 64 204 5.2 5.2 0.00 0.00 0.00 66 1010.4
20260504032000 64 193 2.6 5.2 0.00 0.00 0.00 66 1010.4
20260504031500 65 194 4.3 5.2 0.00 0.00 0.00 65 1010.4
20260504031000 65 196 3.5 5.2 0.00 0.00 0.00 66 1010.4
20260504030500 65 187 3.5 5.2 0.00 0.00 0.00 65 1010.4
20260504030000 65 202 3.5 5.2 0.00 0.00 0.00 65 1010.3
20260504025500 65 189 3.5 5.2 0.00 0.00 0.00 65 1010.3
20260504025000 65 189 3.5 5.2 0.00 0.00 0.00 66 1010.3
20260504024500 65 187 3.5 4.3 0.00 0.00 0.00 66 1010.3
20260504024000 65 205 3.5 4.3 0.00 0.00 0.00 67 1010.3
20260504023500 65 172 4.3 4.3 0.00 0.00 0.00 67 1010.3
20260504023000 65 184 3.5 4.3 0.00 0.00 0.00 68 1010.3
20260504022500 65 196 3.5 4.3 0.00 0.00 0.00 68 1010.3
20260504022000 65 196 3.5 4.3 0.00 0.00 0.00 67 1010.3
20260504021500 65 200 3.5 4.3 0.00 0.00 0.00 67 1010.2
20260504021000 65 197 3.5 4.3 0.00 0.00 0.00 67 1010.3
20260504020500 65 194 2.6 4.3 0.00 0.00 0.00 68 1010.3
20260504020000 65 179 3.5 4.3 0.00 0.00 0.00 67 1010.2
20260504015500 66 194 3.5 4.3 0.00 0.00 0.00 66 1010.2
20260504015000 66 186 2.6 4.3 0.00 0.00 0.00 66 1010.2
20260504014500 66 181 2.6 3.5 0.00 0.00 0.00 67 1010.2
20260504014000 67 193 3.5 3.5 0.00 0.00 0.00 66 1010.2
20260504013500 67 185 3.5 3.5 0.00 0.00 0.00 66 1010.2
20260504013000 68 190 3.5 3.5 0.00 0.00 0.00 62 1010.2
20260504012500 68 189 2.6 3.5 0.00 0.00 0.00 60 1010.1
20260504012000 68 195 2.6 3.5 0.00 0.00 0.00 63 1010.1
20260504011500 68 185 2.6 3.5 0.00 0.00 0.00 65 1010.2
20260504011000 69 174 3.5 3.5 0.00 0.00 0.00 63 1010.2
20260504010500 70 176 3.5 3.5 0.00 0.00 0.00 57 1010.2
20260504010000 71 193 3.5 3.5 0.00 0.00 0.00 53 1010.2
20260504005500 71 196 2.6 4.3 0.00 0.00 0.00 52 1010.3
20260504005000 72 206 3.5 4.3 0.00 0.00 0.00 50 1010.3
20260504004500 72 204 3.5 4.3 0.00 0.00 0.00 50 1010.4
20260504004001 73 206 2.6 4.3 0.00 0.00 0.00 50 1010.6
20260504003500 74 198 3.5 4.3 0.00 0.00 0.00 49 1010.7
20260504003000 74 195 3.5 4.3 0.00 0.00 0.00 48 1010.7
20260504002500 74 214 2.6 3.5 0.00 0.00 0.00 46 1010.8
20260504002000 75 215 2.6 5.2 0.00 0.00 0.00 45 1010.8
20260504001500 75 220 2.6 5.2 0.00 0.00 0.00 44 1010.9
20260504001000 76 211 3.5 7.8 0.00 0.00 0.00 43 1011.0
20260504000500 76 219 2.6 7.8 0.00 0.00 0.00 44 1011.0
20260504000000 77 232 7.8 7.8 0.00 0.00 0.00 40 1010.9
20260503235500 77 225 2.6 7.0 0.00 0.00 0.00 41 1011.0
20260503235000 77 198 4.3 8.7 0.00 0.00 0.00 41 1010.9
20260503234500 77 246 6.1 8.7 0.00 0.00 0.00 40 1010.9
20260503234000 77 231 6.1 8.7 0.00 0.00 0.00 40 1010.9
20260503233500 77 221 6.1 8.7 0.00 0.00 0.00 39 1010.9
20260503233000 77 234 6.1 8.7 0.00 0.00 0.00 38 1010.9
20260503232500 77 225 6.1 9.6 0.00 0.00 0.00 38 1011.1
20260503232000 78 228 3.5 9.6 0.00 0.00 0.00 40 1011.2
20260503231500 78 221 5.2 9.6 0.00 0.00 0.00 39 1011.3
20260503231000 78 208 7.8 9.6 0.00 0.00 0.00 37 1011.3
20260503230500 78 233 7.0 8.7 0.00 0.00 0.00 39 1011.4
20260503230000 78 212 2.6 8.7 0.00 0.00 0.00 39 1011.4
20260503225500 78 217 3.5 8.7 0.00 0.00 0.00 38 1011.5
20260503225000 78 222 3.5 8.7 0.00 0.00 0.00 39 1011.5
20260503224500 78 219 6.1 10.4 0.00 0.00 0.00 37 1011.6
20260503224000 78 235 4.3 10.4 0.00 0.00 0.00 40 1011.6
20260503223500 78 250 4.3 9.6 0.00 0.00 0.00 37 1011.6
20260503223000 78 210 5.2 8.7 0.00 0.00 0.00 38 1011.7
20260503222500 78 246 5.2 7.8 0.00 0.00 0.00 37 1011.7
20260503222000 78 235 4.3 8.7 0.00 0.00 0.00 37 1011.8
20260503221500 78 204 6.1 11.3 0.00 0.00 0.00 37 1011.8
20260503221000 78 210 3.5 13.9 0.00 0.00 0.00 40 1011.8
20260503220500 78 233 9.6 13.9 0.00 0.00 0.00 39 1011.9
20260503220000 78 194 8.7 11.3 0.00 0.00 0.00 38 1011.9
20260503215500 78 199 7.8 11.3 0.00 0.00 0.00 38 1012.0